Regional Weather Roundup
Issued by NWS

Home | Current Version | Previous Version | Text Only | Print | Product List | Glossary Off
Versions: 1 2 3 4 5 6 7 8 9 10 11 12 13 14 15 16 17 18 19 20 21 22 23 24 25 26 27 28 29 30 31 32 33 34 35 36 37 38 39 40 41 42 43 44 45 46 47 48 49 50

000
ASUS43 KDTX 280710
RWRMI
MICHIGAN HOURLY REGIONAL WEATHER ROUNDUP
NATIONAL WEATHER SERVICE DETROIT/PONTIAC MI
300 AM EDT SAT MAY 28 2016

NOTE: "FAIR" INDICATES FEW OR NO CLOUDS BELOW 12,000 FEET WITH NO
SIGNIFICANT WEATHER AND/OR OBSTRUCTION TO VISIBILITY.

MIZ047>049-052>055-059>063-066>070-074>076-081>083-280800-
SOUTHEAST LOWER MICHIGAN

CITY           SKY/WX    TMP DP  RH WIND       PRES   REMARKS
ADRIAN         CLEAR     71  61  70 SW6       29.99F
ALMA           CLOUDY    71  64  79 S14       29.94S
ANN ARBOR      CLEAR     61  60  97 CALM      29.98F
BAD AXE        CLOUDY    72  63  74 S10       29.97S
CARO           CLOUDY    74  64  69 S6        29.96R
DETROIT CITY   PTCLDY    71  61  70 S3        29.98F
DETROIT        MOCLDY    68  62  81 S3        29.99S
FLINT          PTCLDY    76  61  59 S7        29.97S
GROSSE ILE     CLEAR     66  63  88 S3        29.98S
HILLSDALE      CLEAR     71  56  58 S5        29.99F
HOWELL         CLEAR     71  61  72 S6        29.98S

CITY           SKY/WX    TMP DP  RH WIND       PRES   REMARKS
JACKSON        CLEAR     71  61  70 S6        29.97F
LAMBERTVILLE   CLEAR     73  61  66 S3        29.99S
LANSING        PTCLDY    72  61  68 S8        29.95F
LAPEER         FAIR      71  60  68 S7        29.99R
MASON          CLEAR     70  61  73 S7        29.96F
MONROE         PTCLDY    70  63  77 SW6       29.98S
MT. CLEMENS    CLEAR     66  63  89 SE2       29.98S
PONTIAC        CLEAR     70  61  73 S3        29.99R
PORT HOPE        N/A     69  62  78 S6        29.95S
PORT HURON     CLEAR     66  61  82 CALM      29.99S
TRI CITIES     CLOUDY    76  64  66 S10       29.94S
MIDLAND        FAIR      67  67  97 CALM      29.93S
TROY           CLEAR     71  61  72 CALM      30.01S
SAGINAW HB     CLOUDY    73  63  68 S8        29.95R
$$
MIZ043>046-050>051-056>058-064>065-071>073-077>080-280800-
SOUTHWEST LOWER MICHIGAN

CITY           SKY/WX    TMP DP  RH WIND       PRES   REMARKS
BATTLE CREEK   CLEAR     71  59  65 S9        29.96S
BENTON HARBOR  CLOUDY    69  65  86 SE5       29.90F
BIG RAPIDS     CLOUDY    67  67  97 CALM      29.93S
COLDWATER      CLEAR     71  60  67 S6        29.96F
FREMONT        FAIR      68  68 100 S5        29.91S
HOLLAND        CLOUDY    69  65  86 S5        29.92S
GRAND RAPIDS   CLOUDY    70  64  81 SE6       29.93S
IONIA          FAIR      73  60  63 S6        29.93S
KALAMAZOO      CLOUDY    72  59  63 S5        29.95S
LUDINGTON      CLOUDY    69  65  86 S13       29.88S
MARSHALL       CLEAR     72  60  67 S6        29.95F
MOUNT PLEASANT CLOUDY    67  67  99 CALM      29.93S
MUSKEGON       CLOUDY    72  62  71 S16G24    29.91R
SOUTH HAVEN    CLOUDY    69  67  90 S3        29.92S
$$
MIZ016>042-280800-
NORTHERN LOWER MICHIGAN

CITY           SKY/WX    TMP DP  RH WIND       PRES   REMARKS
ALPENA         RAIN      63  60  90 S6        29.98R FOG
BEAVER ISLAND  CLOUDY    62  62  97 E8        29.89F
BELLAIRE       LGT RAIN  69  65  88 CALM      29.90S
CADILLAC       CLOUDY    67  65  93 S6        29.93F
CHARLEVOIX     CLOUDY    67  66  96 SE9       29.92S
FRANKFORT      CLOUDY    70  67  89 S8        29.87F
GAYLORD        CLOUDY    67  64  90 S8        29.95F
GRAYLING       CLOUDY    66  65  97 E5        29.96S
HARBOR SPRINGS CLOUDY    67  65  95 NE6       29.91F
HOUGHTON LAKE  CLOUDY    67  65  93 CALM      29.95F
MANISTEE       CLOUDY    68  63  83 SE5       29.88F
OSCODA         CLOUDY    64  59  83 CALM      29.95S
PELLSTON       CLOUDY    67  65  93 SE5       29.91F
ROGERS CITY    LGT RAIN  64  60  87 S6        29.97R
TRAVERSE CITY  CLOUDY    70  66  87 VRB3      29.87F
$$
MIZ007>008-015-280800-
EASTERN UPPER MICHIGAN

CITY           SKY/WX    TMP DP  RH WIND       PRES   REMARKS
KINROSS          N/A     61  59  94 SE7       29.94S
MACKINAC ISLAN LGT RAIN  54  54 100 E5        29.93S
NEWBERRY       CLOUDY    62  61  97 E3        29.90F FOG
S. S. MARIE    LGT RAIN  62  59  90 E5        29.94S
MUNISING         N/A     63  62  97 S7        29.83F
$$
MIZ004>006-011>014-085-280800-
CENTRAL UPPER MICHIGAN

CITY           SKY/WX    TMP DP  RH WIND       PRES   REMARKS
MANISTIQUE     CLOUDY    61  60  97 SE10      29.86F FOG
ESCANABA       CLOUDY    61  57  88 S8        29.83F
MENOMINEE      CLOUDY    61  60  97 SE3       29.82F FOG
SAWYER-GWINN   CLOUDY    62  61  96 S9        29.84R FOG
$$
MIZ001>003-009>011-084-280800-
WESTERN UPPER MICHIGAN

CITY           SKY/WX    TMP DP  RH WIND       PRES   REMARKS
IRON MOUNTAIN  FOG       62  61  96 SE6       29.81F VSB 1/2
HOUGHTON       FOG       52  52 100 E6        29.81S VSB 1/4
COPPER HARBOR    N/A     49  49 100 CALM      29.83F
IRONWOOD       CLOUDY    59  59 100 NE3       29.75S
$$

ABBREVIATIONS USED IN REMARKS
   TC - TEMPERATURE IN CELSIUS
  WCI - WIND CHILL INDEX
   HX - HEAT INDEX
  VSB - VISIBILITY





USA.gov is the U.S. government's official web portal to all federal, state and local government web resources and services.